Regional Weather Roundup
Issued by NWS

Home | Current Version | Previous Version | Graphics & Text | Print | Product List | Glossary On
Versions: 1 2 3 4 5 6 7 8 9 10 11 12 13 14 15 16 17 18 19 20 21 22 23 24 25 26 27
000
ASUS45 KBOU 161006
RWRCO

WEATHER ROUNDUP FOR COLORADO
NATIONAL WEATHER SERVICE DENVER/BOULDER CO
400 AM MDT WED APR 16 2014

NOTE: "FAIR" INDICATES FEW OR NO CLOUDS BELOW 12000 FEET WITH NO
SIGNIFICANT WEATHER AND/OR OBSTRUCTIONS TO VISIBILITY.

COZ001>005-013-030-031-161100-
...NORTHWEST COLORADO...

CITY           SKY/WX    TMP DP  RH WIND       PRES   REMARKS
CRAIG          CLOUDY    38  16  40 W10       29.92R
HAYDEN         CLOUDY    37  16  41 W17       29.92R
MEEKER         MOCLDY    41  17  38 VRB6      29.91R
MOUNT WERNER   NOT AVBL
STEAMBOAT SPGS CLOUDY    36  14  40 W10       29.88R
WALDEN         MOCLDY    30  18  59 W13       29.86R WCI  20
$$

COZ006>008-011-161100-
...WEST CENTRAL VALLEYS...

CITY           SKY/WX    TMP DP  RH WIND       PRES   REMARKS
GRAND JUNCTION PTCLDY    41  28  60 VRB5      29.83S
MONTROSE       MOCLDY    42  26  53 CALM      29.87R
EAGLE          CLOUDY    45  21  39 NW10      29.86R
RIFLE          MOCLDY    46  23  40 NW5       29.85R
DELTA          MOCLDY    43  26  50 S5        29.83S
NUCLA            N/A     39  18  41 E6        29.91R
$$

COZ017>023-064>068-161100-
...SOUTHWEST COLORADO...

CITY           SKY/WX    TMP DP  RH WIND       PRES   REMARKS
DURANGO        PTCLDY    25   2  37 N5        29.90F WCI  19
CORTEZ         CLEAR     28  15  58 E7        29.88S WCI  21
PAGOSA SPRINGS PTCLDY    27   6  40 CALM      29.93F
TELLURIDE      CLOUDY    43   5  21 CALM      29.95S
WOLF CREEK PAS CLEAR     23   0  36 SW28G35   30.00F WCI   6
$$

COZ009-010-012-014-032>034-037-058>063-161100-
...CENTRAL COLORADO...

CITY           SKY/WX    TMP DP  RH WIND       PRES   REMARKS
ASPEN          CLOUDY    42  15  33 N8        29.86R
BUENA VISTA    PTCLDY    40   8  27 CALM      29.83R
COPPER MTN     HVY SNOW  25  19  80 W32G39    29.90F VSB<1/4 WCI   7
BERTHOUD PASS  HVY SNOW  18   7  62 NW35G44   29.83R VSB 1/4 WCI  -3
COTTONWOOD PAS PTCLDY    39   5  24 NW24G43   29.84F
GUNNISON       PTCLDY    27  16  63 CALM      29.90S
KREMMLING      CLOUDY    32  23  69 SE5       29.90R WCI  27
LEADVILLE      CLOUDY    31  13  47 W18G30    29.89R WCI  19
MONARCH PASS   CLOUDY    25   5  42 W32G44    30.04R WCI   7
SALIDA         PTCLDY    40   7  25 E7        29.88F
SUNLIGHT       CLOUDY    30  19  64 CALM      29.93S
WILKERSON PASS CLEAR     28  12  50 W15G23    29.90S WCI  17
$$

COZ069>075-161100-
...SAN LUIS VALLEY/SANGRE DE CRISTO MOUNTAINS...

CITY           SKY/WX    TMP DP  RH WIND       PRES   REMARKS
ALAMOSA        PTCLDY    33  10  38 SW10      29.86F WCI  25
LA VETA PASS   PTCLDY    30   1  29 W10G24    29.87F WCI  21
SAGUACHE       CLEAR     27   7  43 N5        29.88S WCI  21
$$

COZ035-036-038>040-161100-
...NORTHERN COLORADO FRONT RANGE...

CITY           SKY/WX    TMP DP  RH WIND       PRES   REMARKS
DENVER INTL AP PTCLDY    39  31  72 N14       29.73R
DMNS CITY PARK   N/A     49  24  37 NW15G25   29.73R
AURORA         PTCLDY    39  28  65 SE3       29.75R
FRONT RANGE AP NOT AVBL
ERIE MUNI ARPT PTCLDY    42  28  58 SW3       29.73R
BOULDER MUN AP PTCLDY    48  27  43 W20       29.75R
CENTENNIAL     PTCLDY    39  24  55 NE7       29.75R
BROOMFIELD     PTCLDY    46  27  46 W22G29    29.75R
FORT COLLINS   MOCLDY    45  25  45 N6        29.78R
LONGMONT       MOCLDY    47  29  48 NW12      29.76R
$$

COZ041-046-047-076>085-087-088-161100-
...PIKES PEAK/PALMER DIVIDE AND SOUTHERN FOOTHILLS...

CITY           SKY/WX    TMP DP  RH WIND       PRES   REMARKS
COLO. SPRINGS  MOCLDY    49  11  21 NE9       29.74R
A. F. ACADEMY  PTCLDY    41  13  31 NE9       29.75R
ELLICOTT       NOT AVBL
FALCON         PTCLDY    43  11  27 CALM      29.78R
FORT CARSON    PTCLDY    47  12  24 N8        29.71R
LIMON          MOCLDY    38  31  76 N17       29.75R
MONUMENT HILL  PTCLDY    41  14  33 SW6       29.76R
TRINIDAD       PTCLDY    42  12  29 SW10      29.75F
$$

COZ042>045-048>051-090-091-161100-
...NORTHEAST COLORADO...

CITY           SKY/WX    TMP DP  RH WIND       PRES   REMARKS
GREELEY ARPT   MOCLDY    46  27  46 N17       29.76R
AKRON          CLOUDY    44  30  57 NW20      29.71R
BURLINGTON     PTCLDY    48  29  47 N26G32    29.68R
WRAY           PTCLDY    46  33  61 NW16G22   29.65R
STERLING       MOCLDY    52  32  46 NW39G51   29.67R
HOLYOKE        PTCLDY    52  32  46 NW18G29   29.65S
FORT MORGAN    PTCLDY    45  28  52 NW33G40   29.72R
$$

COZ086-089-092>099-161100-
...SOUTHEAST COLORADO...

CITY           SKY/WX    TMP DP  RH WIND       PRES   REMARKS
PUEBLO         MOCLDY    37  27  67 NW5       29.69S
LA JUNTA       PTCLDY    46  24  42 SW14      29.67S
LAMAR          PTCLDY    40  26  57 W5        29.65R
SPRINGFIELD    NOT AVBL
$$



USA.gov is the U.S. government's official web portal to all federal, state and local government web resources and services.